{"data":{"norad_id":65168,"epoch":"2026-09-21T22:09:21.523392Z","epoch_age_seconds":42199,"freshness":"FRESH","line1":"1 65168U 25174E   26264.92316578  .00000037  00000+0  52138-4 0  9998","line2":"2 65168  86.4936 219.1515 0002321  73.5608 286.5781 13.24402062 53598","mean_motion":13.24402062,"eccentricity":0.0002321,"inclination_deg":86.4936,"raan_deg":219.1515,"arg_perigee_deg":73.5608,"mean_anomaly_deg":286.5781,"bstar":5.2138e-5,"rev_number":5359,"period_min":108.72831153898,"perigee_km":1166.2008905439,"apogee_km":1169.7037852145,"semimajor_km":7546.0893378792,"source":"CELESTRAK","updated_at":"2026-09-22T09:00:30.164155Z"}}